Voltar ao catálogo

STARLINK-32306

AtivoComunicaçõesVLEO
NORAD 61520·PAYLOAD·🇺🇸 United States

Lançado Oct 15, 2024 de Cape Canaveral Space Force Station

Loading…

Próximas Passagens (próximas 24 horas)

TLE

AtualizadoSource: CelesTrak SupGP

Época: Sep 15, 2026, 02:22 UTC

1 61520C 24183M   26258.09909722  .00069501  00000+0  22334-2 0  2587
2 61520  53.1596 341.2668 0001157  84.6568 195.6292 15.31689552    16

Acompanhe STARLINK-32306 em tempo real com AllMySat

Download on the App Store